Regional Weather Roundup
Issued by NWS

Home | Current Version | Previous Version | Graphics & Text | Print | Product List | Glossary On
Versions: 1 2 3 4 5 6 7 8 9 10 11 12 13 14 15 16 17 18 19 20 21 22 23 24 25 26 27 28 29 30 31 32 33 34 35 36 37 38 39 40 41 42 43 44 45 46 47 48 49 50
000
ASUS43 KTOP 261959
RWRKS

WEATHER ROUNDUP FOR KANSAS
NATIONAL WEATHER SERVICE GOODLAND KS
300 PM CDT TUE JUL 26 2016

NOTE:  "FAIR" INDICATES FEW OR NO CLOUDS BELOW 12,000 FEET WITH NO
SIGNIFICANT WEATHER AND/OR OBSTRUCTIONS TO VISIBILITY.

KSZ001>006-013>018-027>032-041>047-262100-
NORTHWEST KANSAS

CITY           SKY/WX    TMP DP  RH WIND       PRES   REMARKS
GOODLAND       SUNNY     88  67  49 S13G24    30.06F
HAYS           PTSUNNY   86  66  51 S10       30.03F
HILL CITY      SUNNY     88  66  48 S10G22    30.03F
RUSSELL        MOSUNNY   87  62  43 SE8       30.02F
$$

KSZ061>065-074>080-084>089-262100-
SOUTHWEST KANSAS

CITY           SKY/WX    TMP DP  RH WIND       PRES   REMARKS
DODGE CITY     SUNNY     87  67  51 SE10      30.05F
ELKHART          N/A     93  68  44 SE8         N/A  HX  97
GARDEN CITY    PTSUNNY   86  71  60 SE12G18   30.05F
GREAT BEND     PTSUNNY   84  66  54 S8        30.03F
LIBERAL        PTSUNNY   91  70  49 SE8       30.05F HX  97
$$

KSZ066>073-081>083-090>101-262100-
SOUTHEAST KANSAS

CITY           SKY/WX    TMP DP  RH WIND       PRES   REMARKS
CHANUTE        MOSUNNY   87  72  60 NE8       29.98F
COFFEYVILLE    CLOUDY    88  74  63 NE7       29.95F HX  96
HUTCHINSON     PTSUNNY   90  70  51 E9        30.02F HX  95
NEWTON         PTSUNNY   85  72  65 VRB3      30.03F
PARSONS        PTSUNNY   88  76  67 VRB5      29.98F HX  99
WICHITA INTL   PTSUNNY   91  71  51 E6        30.00F HX  97
WICHITA JABRA  MOSUNNY   88  73  61 E10       30.00F HX  95
WICHITA MCCONL MOSUNNY   86  70  57 E7        30.00F
WINFIELD       MOSUNNY   89  72  56 SE9       29.99F HX  96
$$

KSZ007>012-019>026-033>040-048>060-102>105-262100-
NORTHEAST KANSAS

CITY           SKY/WX    TMP DP  RH WIND       PRES   REMARKS
CONCORDIA      SUNNY     85  67  54 SE10      30.03F
EMPORIA        PTSUNNY   85  70  60 E7        30.02F
LAWRENCE       SUNNY     87  68  52 SE7       30.01F
MANHATTAN      SUNNY     87  69  54 VRB5      30.02F
OLATHE IND     SUNNY     87  65  47 NE6       30.02F
OLATHE EXE     SUNNY     87  66  49 E8        30.02F
SALINA         MOSUNNY   90  68  48 E9        30.02F
TOPEKA BILLARD SUNNY     87  66  49 SE8       30.01F
TOPEKA FORBES  SUNNY     89  67  47 E9        30.02F
$$




USA.gov is the U.S. government's official web portal to all federal, state and local government web resources and services.